Lexington, NE

7:23 AM CDT on August 24, 2016 (GMT -0500)
Kelly

Weather History for KLXN - November, 2013

Change the Weather History Date:

Thursday, November 21, 2013

  Actual Average Record
Temperature  
Mean Temperature 24 °F -  
Max Temperature 33 °F 44 °F 68 °F (2006)
Min Temperature 15 °F 22 °F 3 °F (2000)
Degree Days  
Heating Degree Days 40    
Moisture  
Dew Point 15 °F    
Average Humidity 74    
Maximum Humidity 84    
Minimum Humidity 63    
Precipitation  
Precipitation 0.00 in - - ()
Sea Level Pressure  
Sea Level Pressure 30.34 in    
Wind  
Wind Speed 21 mph (North)    
Max Wind Speed 29 mph    
Max Gust Speed 37 mph    
Visibility 8 miles    
Events Snow    
Averages and records for this station are not official NWS values.
T = Trace of Precipitation, MM = Missing Value Source: NWS Daily Summary

Daily Weather History Graph

Daily Weather History Graph

Search for Another Location

Airport or City:

Trip Planner

Search our weather history database for the weather conditions in past years. The results will help you decide how hot, cold, wet, or windy it might be!

Date:

Astronomy

Nov. 21, 2013 Rise Set
Actual Time 7:33 AM CST 5:16 PM CST
Civil Twilight 7:03 AM CST 5:46 PM CST
Nautical Twilight 6:30 AM CST 6:19 PM CST
Astronomical Twilight 5:57 AM CST 6:52 PM CST
Moon 8:55 PM CST (11/21) 10:40 AM CST (11/21)
Length of Visible Light 10h 42m
Length of Day
9h 42m
Waning Gibbous, 85% of the Moon is Illuminated
Nov 21
Waning Gibbous
Nov 25
Last Quarter
Dec 2
New
Dec 9
First Quarter
Dec 17
Full

Hourly Weather History & Observations

Time (CST) Temp. Windchill Dew Point Humidity Pressure Visibility Wind Dir Wind Speed Gust Speed Precip Events Conditions
12:15 AM 33.6 °F 24.1 °F 27.1 °F 77% 30.06 in 10.0 mi North 13.8 mph 17.3 mph N/A   Clear
12:35 AM 32.5 °F 19.9 °F 26.4 °F 78% 30.07 in 10.0 mi North 23.0 mph 32.2 mph N/A   Mostly Cloudy
12:55 AM 32.4 °F 19.4 °F 26.1 °F 78% 30.07 in 10.0 mi North 24.2 mph 29.9 mph N/A   Overcast
1:15 AM 32.2 °F 20.0 °F 25.7 °F 77% 30.09 in 10.0 mi North 20.7 mph 31.1 mph N/A   Overcast
1:35 AM 31.8 °F 17.9 °F 24.1 °F 73% 30.10 in 10.0 mi North 27.6 mph 34.5 mph N/A   Overcast
1:55 AM 30.6 °F 17.3 °F 23.0 °F 74% 30.10 in 10.0 mi North 23.0 mph 33.4 mph N/A   Overcast
2:15 AM 30.6 °F 18.2 °F 23.0 °F 74% 30.12 in 10.0 mi North 19.6 mph 27.6 mph N/A   Overcast
2:35 AM 30.2 °F 15.7 °F 22.5 °F 73% 30.13 in 10.0 mi North 27.6 mph 36.8 mph N/A   Overcast
2:55 AM 29.3 °F 15.0 °F 21.4 °F 72% 30.13 in 10.0 mi North 25.3 mph 34.5 mph N/A   Overcast
3:15 AM 28.2 °F 12.8 °F 20.8 °F 74% 30.14 in 10.0 mi North 28.8 mph 36.8 mph N/A   Overcast
3:35 AM 27.1 °F 12.1 °F 20.3 °F 75% 30.14 in 10.0 mi North 25.3 mph 33.4 mph N/A   Overcast
3:55 AM 26.2 °F 11.2 °F 19.8 °F 76% 30.13 in 10.0 mi North 24.2 mph 31.1 mph N/A   Overcast
4:15 AM 25.5 °F 9.7 °F 18.7 °F 75% 30.15 in 10.0 mi North 26.5 mph 33.4 mph N/A   Overcast
4:35 AM 25.2 °F 9.5 °F 18.0 °F 74% 30.17 in 10.0 mi North 25.3 mph 34.5 mph N/A   Overcast
4:55 AM 24.4 °F 8.5 °F 16.7 °F 72% 30.18 in 10.0 mi North 25.3 mph 31.1 mph N/A   Overcast
5:15 AM 23.9 °F 9.5 °F 16.3 °F 73% 30.20 in 10.0 mi North 19.6 mph 29.9 mph N/A   Overcast
5:35 AM 23.7 °F 9.3 °F 15.8 °F 72% 30.22 in 10.0 mi North 19.6 mph 27.6 mph N/A   Overcast
5:55 AM 23.5 °F 8.3 °F 15.3 °F 71% 30.21 in 10.0 mi North 21.9 mph 29.9 mph N/A   Overcast
6:15 AM 23.0 °F 7.6 °F 14.9 °F 71% 30.22 in 10.0 mi North 21.9 mph 33.4 mph N/A   Overcast
6:35 AM 22.6 °F 7.1 °F 14.0 °F 69% 30.23 in 10.0 mi North 21.9 mph 29.9 mph N/A   Overcast
6:55 AM 22.1 °F 4.8 °F 13.8 °F 70% 30.24 in 10.0 mi North 27.6 mph 35.7 mph N/A   Overcast
7:15 AM 21.9 °F 6.9 °F 13.6 °F 70% 30.25 in 10.0 mi North 19.6 mph 31.1 mph N/A   Overcast
7:35 AM 22.1 °F 6.8 °F 14.0 °F 71% 30.26 in 10.0 mi North 20.7 mph - N/A   Overcast
7:55 AM 21.2 °F 4.9 °F 12.7 °F 70% 30.27 in 10.0 mi North 23.0 mph 28.8 mph N/A   Overcast
8:15 AM 21.0 °F 5.0 °F 12.2 °F 69% 30.27 in 10.0 mi North 21.9 mph 31.1 mph N/A   Overcast
8:35 AM 21.0 °F 4.6 °F 12.2 °F 69% 30.27 in 10.0 mi North 23.0 mph 29.9 mph N/A   Overcast
8:55 AM 21.2 °F 6.0 °F 12.2 °F 68% 30.28 in 10.0 mi North 19.6 mph 24.2 mph N/A   Overcast
9:15 AM 21.2 °F 5.2 °F 12.0 °F 68% 30.29 in 10.0 mi NNE 21.9 mph 31.1 mph N/A   Overcast
9:35 AM 22.1 °F 6.4 °F 12.2 °F 66% 30.30 in 10.0 mi North 21.9 mph 28.8 mph N/A   Overcast
9:55 AM 22.3 °F 7.0 °F 12.2 °F 65% 30.32 in 10.0 mi North 20.7 mph 31.1 mph N/A   Mostly Cloudy
10:15 AM 22.3 °F 7.4 °F 11.7 °F 64% 30.32 in 10.0 mi North 19.6 mph 29.9 mph N/A   Mostly Cloudy
10:35 AM 22.1 °F 6.4 °F 11.8 °F 65% 30.34 in 10.0 mi North 21.9 mph 25.3 mph N/A   Overcast
10:55 AM 22.3 °F 7.8 °F 11.8 °F 64% 30.35 in 10.0 mi North 18.4 mph 27.6 mph N/A   Overcast
11:15 AM 22.5 °F 7.2 °F 11.8 °F 64% 30.35 in 10.0 mi North 20.7 mph 27.6 mph N/A   Overcast
11:35 AM 22.6 °F 7.1 °F 11.8 °F 63% 30.36 in 10.0 mi North 21.9 mph 28.8 mph N/A   Overcast
11:55 AM 22.1 °F 6.0 °F 12.0 °F 65% 30.36 in 10.0 mi North 23.0 mph 28.8 mph N/A   Overcast
12:15 PM 22.1 °F 8.0 °F 12.0 °F 65% 30.36 in 10.0 mi North 17.3 mph 28.8 mph N/A   Overcast
12:35 PM 22.1 °F 6.0 °F 12.2 °F 66% 30.37 in 10.0 mi North 23.0 mph 29.9 mph N/A   Overcast
12:55 PM 22.1 °F 7.2 °F 12.9 °F 68% 30.36 in 10.0 mi North 19.6 mph 23.0 mph N/A   Overcast
1:15 PM 22.1 °F 7.2 °F 14.5 °F 73% 30.36 in 3.0 mi North 19.6 mph 27.6 mph N/A Snow Light Snow
1:35 PM 21.0 °F 5.7 °F 14.2 °F 75% 30.37 in 2.5 mi North 19.6 mph - N/A Snow Light Snow
1:55 PM 20.3 °F 4.8 °F 14.4 °F 78% 30.37 in 1.8 mi North 19.6 mph 28.8 mph N/A Snow Light Snow
2:15 PM 19.9 °F 3.9 °F 15.4 °F 83% 30.37 in 1.0 mi North 20.7 mph 26.5 mph N/A Snow Light Snow
2:35 PM 19.4 °F 2.8 °F 14.7 °F 82% 30.38 in 1.0 mi North 21.9 mph 28.8 mph N/A Snow Light Snow
2:55 PM 19.4 °F 3.6 °F 14.9 °F 83% 30.39 in 1.2 mi North 19.6 mph 27.6 mph N/A Snow Light Snow
3:15 PM 19.4 °F 3.6 °F 14.7 °F 82% 30.40 in 1.8 mi North 19.6 mph 24.2 mph N/A Snow Light Snow
3:35 PM 19.0 °F 2.0 °F 13.5 °F 79% 30.41 in 2.5 mi North 23.0 mph 29.9 mph N/A Snow Light Snow
3:55 PM 19.0 °F 4.0 °F 14.0 °F 81% 30.43 in 1.2 mi North 17.3 mph 26.5 mph N/A Snow Light Snow
4:15 PM 18.5 °F 2.4 °F 13.5 °F 81% 30.44 in 3.0 mi North 19.6 mph 26.5 mph N/A Snow Light Snow
4:35 PM 18.0 °F 2.6 °F 13.3 °F 82% 30.45 in 1.5 mi North 17.3 mph 28.8 mph N/A Snow Light Snow
4:55 PM 18.1 °F 3.9 °F 14.0 °F 84% 30.46 in 1.8 mi NNW 15.0 mph - N/A Snow Light Snow
5:15 PM 17.6 °F 2.2 °F 13.1 °F 83% 30.46 in 3.0 mi North 17.3 mph 25.3 mph N/A Snow Light Snow
5:35 PM 18.0 °F 2.2 °F 13.1 °F 81% 30.47 in 3.0 mi North 18.4 mph 27.6 mph N/A Snow Light Snow
6:15 PM 18.1 °F 1.6 °F 13.6 °F 83% 30.48 in 4.0 mi North 20.7 mph 24.2 mph N/A Snow Light Snow
6:35 PM 17.6 °F 0.1 °F 13.1 °F 83% 30.50 in 3.0 mi NNW 23.0 mph 27.6 mph N/A Snow Light Snow
6:55 PM 17.2 °F 0.8 °F 12.2 °F 81% 30.50 in 5.0 mi North 19.6 mph 28.8 mph N/A Snow Light Snow
7:15 PM 17.2 °F 0.8 °F 12.4 °F 81% 30.51 in 5.0 mi North 19.6 mph 25.3 mph N/A Snow Light Snow
7:35 PM 17.1 °F 0.1 °F 12.0 °F 81% 30.53 in 10.0 mi NNW 20.7 mph 26.5 mph N/A   Overcast
7:55 PM 17.2 °F 2.7 °F 11.8 °F 79% 30.55 in 10.0 mi North 15.0 mph 24.2 mph N/A Snow Light Snow
8:15 PM 17.4 °F 0.2 °F 11.3 °F 77% 30.55 in 10.0 mi NNW 21.9 mph 25.3 mph N/A   Overcast
8:35 PM 17.6 °F 2.2 °F 11.5 °F 77% 30.56 in 10.0 mi NNW 17.3 mph 25.3 mph N/A   Overcast
9:15 PM 17.1 °F 1.0 °F 10.9 °F 77% 30.58 in 10.0 mi North 18.4 mph 25.3 mph N/A   Overcast
9:35 PM 17.2 °F 2.2 °F 10.9 °F 76% 30.58 in 10.0 mi North 16.1 mph 24.2 mph N/A   Overcast
9:55 PM 17.4 °F 2.9 °F 11.1 °F 76% 30.60 in 10.0 mi NNW 15.0 mph - N/A   Overcast
10:15 PM 17.6 °F 2.7 °F 11.3 °F 76% 30.61 in 10.0 mi NNW 16.1 mph - N/A   Overcast
10:35 PM 17.2 °F 0.8 °F 9.7 °F 72% 30.60 in 10.0 mi NNW 19.6 mph 24.2 mph N/A   Mostly Cloudy
10:55 PM 16.2 °F 1.3 °F 8.6 °F 72% 30.60 in 10.0 mi North 15.0 mph 23.0 mph N/A   Scattered Clouds
11:15 PM 16.3 °F 3.4 °F 9.1 °F 73% 30.60 in 10.0 mi North 11.5 mph 18.4 mph N/A   Mostly Cloudy
11:35 PM 16.3 °F 4.9 °F 9.0 °F 73% 30.61 in 10.0 mi NNW 9.2 mph - N/A   Overcast
11:55 PM 15.8 °F 3.4 °F 9.1 °F 75% 30.63 in 10.0 mi NW 10.4 mph - N/A   Mostly Cloudy